Showing default

HULIANWANG DIGUI-11, 62971

Orbit data source: Space-Track

HULIANWANG DIGUI-11, 62971 is a payload satellite owned by Zhongguo Xingwang (CN) in LEO that was launched on Tue, 11 Feb 2025 UTC via a CHANG ZHENG 8A launch vehicle from the Wenchang Satellite Launch Center (WSC). Payload-class satellites include a variety of spacecraft equipped with specific instruments for various scientific and technological missions. These include communications satellites like Starlink; space stations such as the ISS; scientific satellites like the Hubble; Earth observation satellites from companies like Planet Labs, Umbra, and HawkEye 360; GPS; miniature CubeSats for education and research; and military/defense satellites.

Loading next visibility...
Identifier
62971, 2025-030A
Orbit
LEO
Country
Flag of CNCN / PRC
Related business
Manufacturer
CAST
Mission
Operational Civil Communications
Bus & Motor
GUOWANG C, Unknown motor
Mass
~800 kg wet, ~800 kg dry
Launch date (UTC)
2025-02-11 (10 months ago)
Launch vehicle
CHANG ZHENG 8A
Launch site
Wenchang Satellite Launch Center (WSC)
Object type
Payload
Rocket body
Debris
Shape & HBR
Box + 2 Pan, 2.1 m
Radar Cross Section
5.935 m², Large (>1 m²)

Expand to show TLE details & history
Last TLE update: 9 hours ago

TLE from 9 hours ago
0 HULIANWANG DIGUI-11
1 62971U 25030A   25343.33255141 -.00000070  00000-0  11663-3 0  9994
2 62971  49.9987 196.7927 0000835   8.4481 351.6405 13.29330591 40605
Epoch: 2025-12-09T07:58Z
TLE epoch observation values (Epoch: 2025-12-09T07:58:52.441Z)
Latitude
-0.00003°
Longitude
-1.24458°
Altitude
1,149.173 km
Speed
7.28 km/s
True Right ascension
13h 07m 10s
True Declination
0° 00' 00"
Sunlit
Object was in daylight at epoch
Visualization orbit readout
Latitude
Unknown
Longitude
Unknown
Altitude
Unknown
Speed
Unknown
Apparent Right ascension
Unknown
Apparent Declination
Unknown
Sunlit
N/A
Visualization observer readout
Local Sidereal Time
14:48:45
Azimuth
Unknown
Elevation
Unknown
Doppler factor
Unknown
Orbital elements
Apogee altitude
1,150.623 km
Perigee altitude
1,149.366 km
Semi-major axis
7,528.132 km
Eccentricity
0.00008
Inclination
49.9987°
RAAN
196.7927°
Arg. of periapsis
8.4481°
True anomaly
351.63911°
Mean anomaly
351.6405°
Eccentric anomaly
351.6398°
Mean motion
3.32286 °/min
Orbital period
108.34 mins
BSTAR
0.00011663
Loading maneuver chart data...
Computing Atmospheric mass density...
Loading historical data...
Loading historical data...
Loading historical data...
Loading historical data...
Loading historical data...
Loading historical data...
Loading historical data...

Documentation

Showing up to 5 results
|